Location: Consuma
(43.7833°N, 11.5833°E)
Time: 18:39:57
(UTC+00:00)

Cosmos 1238 - Pass Details

Date: 17 February 2020
Orbit: 392 x 1426 km, 83.0° (Epoch: 28 March)

Event Time Altitude Azimuth Distance (km) Brightness Sun altitude
Rises 04:54:50 0° 194° (SSW) 2,394 8.0 -14.3°
Reaches altitude 10° 04:56:56 10° 199° (SSW) 1,473 6.9 -13.9°
Maximum altitude 04:59:59 57° 279° (W) 473 4.1 -13.4°
Drops below altitude 10° 05:02:59 10° 360° (N) 1,453 6.9 -12.8°
Sets 05:05:02 0° 4° (N) 2,357 8.1 -12.5°
